{"data":{"norad_id":53501,"intl_designator":"2022-099AN","name":"STARLINK-4434","alt_names":[],"object_type":"PAYLOAD","status":"ACTIVE","operator":null,"country":"US","launch_date":"2022-08-12","launch_site_code":"AFWTR","launch_vehicle":null,"mission":null,"orbit_class":"UNKNOWN","rcs_meters":null,"size_class":null,"mass_kg":null,"dimensions":null,"purposes":["comms"],"wikipedia_slug":null,"has_3d_model":false,"image_url":null,"decayed_at":null,"tle_current":{"epoch":"2026-05-25T04:00:03.998880Z","epoch_age_seconds":56690,"freshness":"FRESH","line1":"1 53501U 22099AN  26145.16671295  .00146759  00000+0  37234-2 0  9993","line2":"2 53501  97.6055 267.2468 0001674  69.4341 160.9488 15.39096243  5876","mean_motion":15.39096243,"eccentricity":0.0001674,"inclination_deg":97.6055,"raan_deg":267.2468,"arg_perigee_deg":69.4341,"mean_anomaly_deg":160.9488,"bstar":0.0037234,"rev_number":587,"period_min":93.56140050041,"perigee_km":447.63769463858,"apogee_km":449.92334662449,"semimajor_km":6826.9175206315,"source":"CELESTRAK","updated_at":"2026-05-25T13:38:17.437296Z"}}}